Flag for Canada Weather past 2 weeks in Quispamsis, New Brunswick, Canada

Now
57 °F

Overcast.


Feels Like: 53 °F
Forecast: 53 / 67 °F
Wind: 17 mph from North

Location: Saint John

Current Time: Aug 29, 2014 at 1:28:56 AM

Latest Report: Aug 29, 2014 at 1:00 AM


Visibility: 8 mi

Pressure: 29.83 "Hg

Humidity: 88%

Dew point: 54 °F

Location of QuispamsisLocation

Historic Weather in Quispamsis — Graph

°F

Quispamsis temperature yesterday

Maximum temperature yesterday: 79 °F (at 2:00 PM)
Minimum temperature yesterday: 57 °F (at 2:00 AM)
Average temperature yesterday: 66 °F

Past Weeks' High & Low Weather Summary

 TemperatureHumidityPressure
High81 °F (Aug 20, 3:00 PM)100% (Aug 14, 7:00 AM)30.19 "Hg (Aug 14, 7:00 AM)
Low45 °F (Aug 24, 7:00 AM)39% (Aug 28, 4:00 PM)29.65 "Hg (Aug 18, 4:00 PM)
Average62 °F87%29.96 "Hg
* Reported Midnight between Aug 13 and Aug 14 — Midnight between Aug 28 and Aug 29, Quispamsis, Weather by CustomWeather, © 2014

Note: Actual official high and low records may vary slightly from our data, if they occured in-between our weather recording intervals... More about our weather records

Advertising

Quispamsis weather history for previous 24 hours

 ConditionsComfort  
Time TempWeatherWind HumidityBarometerVisibility
12:00 AM
Aug 29
57 °FLight rain. Mostly cloudy.15 mph94%29.81 "Hg8 mi
11:45 PM
Aug 28
59 °FLight rain. Mostly cloudy.17 mph88%29.80 "Hg10 mi
11:00 PM59 °FMostly cloudy.22 mph88%29.77 "Hg10 mi
10:00 PM61 °FPartly cloudy.16 mph88%29.75 "Hg15 mi
9:00 PM63 °FScattered clouds.15 mph83%29.72 "Hg15 mi
8:00 PM66 °FBroken clouds.17 mph68%29.70 "Hg15 mi
7:00 PM70 °FBroken clouds.15 mph60%29.68 "Hg15 mi
6:00 PM73 °FPartly sunny.17 mph53%29.67 "Hg15 mi
5:00 PM79 °FScattered clouds.10 mph42%29.65 "Hg15 mi
4:00 PM79 °FScattered clouds.13 mph39%29.65 "Hg15 mi
3:00 PM79 °FPartly sunny.3 mph48%29.67 "Hg15 mi
2:00 PM79 °FPartly sunny.10 mph48%29.68 "Hg15 mi
1:00 PM75 °FPartly sunny.8 mph54%29.70 "Hg15 mi
12:00 PM75 °FBroken clouds.10 mph57%29.72 "Hg15 mi
11:00 AM73 °FScattered clouds.9 mph61%29.73 "Hg15 mi
10:00 AM70 °FScattered clouds.6 mph73%29.74 "Hg15 mi
9:00 AM66 °FScattered clouds.6 mph88%29.76 "Hg15 mi
8:00 AM61 °FBroken clouds.5 mph100%29.76 "Hg15 mi
7:00 AM61 °FPassing clouds.2 mph100%29.76 "Hg10 mi
6:00 AM59 °FMostly cloudy.2 mph100%29.76 "Hg8 mi
5:00 AM59 °FOvercast.3 mph100%29.76 "Hg8 mi
4:00 AM57 °FFog.No wind100%29.78 "Hg5 mi
3:00 AM57 °FFog.No wind100%29.79 "Hg1 mi
2:00 AM57 °FFog.2 mph100%29.80 "Hg0 mi
1:00 AM59 °FFog.No wind100%29.82 "Hg0 mi
Weather by CustomWeather, © 2014

See weather overviewHow to use our weather pages